Regional Weather Roundup
Issued by NWS Sterling, VA

Home | Current Version | Previous Version | Graphics & Text | Print | Product List | Glossary On
Versions: 1 2 3 4 5 6 7 8 9 10 11 12 13 14 15 16 17 18 19 20 21 22 23 24 25 26 27 28 29 30 31 32 33 34 35 36 37 38 39 40 41 42 43 44 45 46 47 48 49 50
000
ASUS41 KLWX 260810
RWRLWX

REGIONAL WEATHER ROUNDUP
NATIONAL WEATHER SERVICE BALTIMORE MD/WASHINGTON DC
400 AM EDT SUN APR 26 2015

Note: "FAIR" indicates few or no clouds below 12,000 feet
with no significant weather and/or obstructions to visibility.
 TC=TEMPERATURE CELSIUS

 * =Non NWS site. Station does not report precipitation (e.g. rain,
    snow, etc.), thunder, or fog.

DCZ001-MDZ009-015-VAZ040>042-051-053>054-260900-
WASHINGTON METRO

CITY           SKY/WX    TMP DP  RH WIND       PRES   REMARKS
WASHINGTON NAT CLOUDY    46  39  76 NW5       29.71R
DULLES         CLOUDY    41  39  93 NW6       29.70S
ANDREWS AFB    CLOUDY    42  42  97 NW6       29.68R
FT BELVOIR     CLOUDY    43  41  93 NW5       29.69R
QUANTICO       CLOUDY    44  40  85 NW7       29.69F
COLLEGE PARK*  CLOUDY    43  43 100 N3        29.68F
LEESBURG*      CLOUDY    41  41 100 CALM      29.70S
MANASSAS*      CLOUDY    43  43 100 N7        29.70R
GAITHERSBURG*  CLOUDY    39  37  93 CALM      29.73S

$$

MDZ006>007-011-014-260900-
BALTIMORE METRO

CITY           SKY/WX    TMP DP  RH WIND       PRES   REMARKS
BWI AIRPORT    CLOUDY    42  39  89 NW5       29.69R
MD SCIENCE CTR   N/A     46  36  68 MISG      29.69R
MARTIN STATE   MOCLDY    45  37  76 NW3       29.70S
ANNAPOLIS      CLOUDY    45  41  86 N8        29.68S
FORT MEADE*    CLOUDY    41  39  93 CALM      29.71R

$$

MDZ012-015-019>023-260900-
MARYLAND EASTERN SHORE

CITY           SKY/WX    TMP DP  RH WIND       PRES   REMARKS
OCEAN CITY     CLOUDY    44  39  82 SE3       29.66S
SALISBURY      CLOUDY    42  40  92 NE3       29.65F
BAY BRIDGE AP*   N/A    N/A N/A N/A CALM      29.68F
CAMBRIDGE*     CLOUDY    43  41  93 CALM      29.65F
EASTON*        MOCLDY    44  44 100 NE5       29.70F

$$

MDZ017>025-260900-
SOUTHERN MARYLAND

CITY           SKY/WX    TMP DP  RH WIND       PRES   REMARKS
PATUXENT RIVER CLOUDY    44  40  85 E5        29.67S
ST INIGOES     CLOUDY    45  41  86 CALM      29.66S
LEONARDTOWN*   CLOUDY    43  39  87 CALM      29.68S

$$

MDZ003>005-260900-
NORTH CENTRAL MARYLAND

CITY           SKY/WX    TMP DP  RH WIND       PRES   REMARKS
FREDERICK*     CLOUDY    43  36  75 CALM      29.72F
HAGERSTOWN APT CLOUDY    41  35  79 SE3       29.69F
WESTMINSTER*   CLOUDY    41  36  81 CALM      29.68F

$$

MDZ501>502-260900-
WESTERN MARYLAND

CITY           SKY/WX    TMP DP  RH WIND       PRES   REMARKS
OAKLAND*       CLOUDY    32 N/A N/A SE9       29.62S WCI  24
CUMBERLAND*    CLOUDY    41  41 100 CALM      29.73

$$

VAZ025>031-260900-
SHENANDOAH VALLEY

CITY           SKY/WX    TMP DP  RH WIND       PRES   REMARKS
WINCHESTER*    CLOUDY    41  37  87 CALM      29.69R FOG
FRONT ROYAL*   CLOUDY    37  37 100 CALM      29.68S
LURAY*         CLOUDY    41  41 100 CALM      29.67F
NEW MARKET*    CLOUDY    39  38  94 CALM      29.66F
STAUNTON*      LGT RAIN  41  39  93 E5        29.67F
WAYNESBORO*    CLOUDY    39  39  99 NE6       29.65S

$$

WVZ021-048>050-054>055-260900-
EASTERN WEST VIRGINIA PANHANDLE

CITY           SKY/WX    TMP DP  RH WIND       PRES   REMARKS
MARTINSBURG    CLOUDY    41  38  89 NE7       29.71R FOG
PETERSBURG*    CLOUDY    40  35  83 CALM      29.69S

$$

VAZ036>039-050-260900-
CENTRAL FOOTHILLS

CITY           SKY/WX    TMP DP  RH WIND       PRES   REMARKS
CHARLOTTESVILL LGT RAIN  41  39  93 NE5       29.67S
CULPEPER*      CLOUDY    43  41  93 CALM      29.69S
ORANGE*        DRIZZLE   41  41 100 CALM      29.70S
GORDONSVILLE*  CLOUDY    40  39  95 CALM      29.68S
WARRENTON*     CLOUDY    42  42 100 NW3       29.69R

$$

VAZ055>057-260900-
NORTH AND CENTRAL PIEDMONT

CITY           SKY/WX    TMP DP  RH WIND       PRES   REMARKS
FREDERICKSBRG* CLOUDY    44  44 100 CALM      29.68S
STAFFORD*      CLOUDY    41  32  70 CALM      29.72F HAZE

$$

NCZ024-NYZ072-PAZ021-071-VAZ022-071-260900-
OTHER REGIONAL OBSERVATIONS

CITY           SKY/WX    TMP DP  RH WIND       PRES   REMARKS
NEW YORK CITY  CLEAR     47  27  45 NE5       29.69F
PHILADELPHIA   PTCLDY    47  29  49 NE9       29.66F
PITTSBURGH     CLOUDY    44  27  51 NE12      29.69R
ROANOKE        LGT RAIN  42  41  96 SE3       29.64F
RICHMOND       DRIZZLE   45  43  93 N7        29.66S FOG
RALEIGH        FOG       46  44  93 NE8       29.62S VSB 1/2

$$

ANZ530>537-260900-
MARINE OBSERVATIONS

STATION/POSITION TIME  TEMP    WIND        PRES
                       AIR SEA DIR/SP/G
                 (UTC) (F)     (DEG/KT/KT) (MB)
THOMAS PT LIGHT  0800   45 52  330/  7/  7 1005.7F
BALT KEY BRIDGE  0700   44     290/  3/  4 1004.9F
COVE POINT       0700   43     120/  5/  7 1005.3F
LEWISETTA        0700   46 58              1004.2F
SOLOMONS ISLAND  0700      54                N/A
PINEY POINT      0700           70/  3/  5   N/A

$$




USA.gov is the U.S. government's official web portal to all federal, state and local government web resources and services.